Location: Zagreb
(45.8000°N, 16.0000°E)
Time: 03:32:02
(UTC+01:00)

SR - All Passes

Search period start: 25 January 2020 00:00
Search period end: 04 February 2020 00:00
Orbit: 574 x 882 km, 66.7° (Epoch: 24 January)

Date Brightness Start Highest point End Pass type
(mag) Time Alt. Az. Time Alt. Az. Time Alt. Az.
25 Jan - 00:13:06 10° W 00:17:45 23° NW 00:22:25 10° NNE night (unlit)
25 Jan - 03:46:47 10° N 03:47:13 10° NNE 03:47:39 10° NNE visible
25 Jan - 05:26:50 10° NNW 05:31:30 25° NE 05:35:54 10° E visible
25 Jan - 07:08:38 10° NW 07:14:13 71° WSW 07:19:18 10° SSE daylight
25 Jan - 21:39:35 10° S 21:45:13 52° ESE 21:50:59 10° NE night (unlit)
25 Jan - 23:22:15 10° WSW 23:27:36 35° NW 23:33:00 10° NNE night (unlit)
26 Jan - 01:09:07 10° NW 01:11:33 12° NNW 01:13:57 10° N night (unlit)
26 Jan - 04:37:29 10° N 04:41:13 17° NNE 04:44:47 10° ENE visible
26 Jan - 06:18:54 10° NNW 06:24:31 65° NE 06:29:38 10° SE visible
26 Jan - 08:02:04 10° WNW 08:06:02 21° WSW 08:09:46 10° SSW daylight
26 Jan - 20:50:52 10° SSE 20:55:48 29° ESE 21:00:50 10° NE night (unlit)
26 Jan - 22:31:51 10° SW 22:37:39 56° NW 22:43:29 10° NNE night (unlit)
27 Jan - 00:17:19 10° WNW 00:21:04 17° NNW 00:24:48 10° N night (unlit)
27 Jan - 03:48:20 10° N 03:50:45 13° NNE 03:53:08 10° NE visible
27 Jan - 05:29:21 10° NNW 05:34:36 38° NE 05:39:28 10° ESE visible
27 Jan - 07:11:38 10° NW 07:16:45 39° WSW 07:21:26 10° S daylight
27 Jan - 20:03:13 10° SE 20:06:34 16° ESE 20:09:57 10° ENE night (unlit)
27 Jan - 21:42:00 10° SSW 21:47:52 87° ESE 21:53:51 10° NE night (unlit)
27 Jan - 23:26:00 10° W 23:30:45 24° NW 23:35:28 10° NNE night (unlit)
28 Jan - 04:39:55 10° NNW 04:44:30 24° NE 04:48:47 10° E visible
28 Jan - 06:21:40 10° NW 06:27:15 75° WSW 06:32:19 10° SSE visible
28 Jan - 08:07:02 10° W 08:08:12 11° W 08:09:21 10° WSW daylight
28 Jan - 20:52:40 10° S 20:58:17 50° ESE 21:04:00 10° NE night (unlit)
28 Jan - 22:35:11 10° WSW 22:40:37 36° NW 22:46:04 10° NNE night (unlit)
29 Jan - 00:21:58 10° NW 00:24:30 13° NNW 00:27:02 10° N night (unlit)
29 Jan - 03:50:36 10° N 03:54:11 17° NNE 03:57:37 10° ENE visible
29 Jan - 05:31:59 10° NNW 05:37:32 61° NE 05:42:36 10° SE visible
29 Jan - 07:15:01 10° WNW 07:19:06 22° WSW 07:22:55 10° SSW daylight
29 Jan - 20:04:01 10° SSE 20:08:53 28° ESE 20:13:48 10° NE night (unlit)
29 Jan - 21:44:51 10° SW 21:50:40 59° NW 21:56:32 10° NNE night (unlit)
29 Jan - 23:30:11 10° WNW 23:34:02 17° NNW 23:37:51 10° N night (unlit)
30 Jan - 03:01:28 10° N 03:03:42 12° NNE 03:05:54 10° NE visible
30 Jan - 04:42:25 10° NNW 04:47:36 36° NE 04:52:23 10° ESE visible
30 Jan - 06:24:39 10° NW 06:29:47 42° WSW 06:34:31 10° S visible
30 Jan - 19:16:32 10° SE 19:19:40 15° ESE 19:22:49 10° ENE night (unlit)
30 Jan - 20:55:02 10° SSW 21:00:55 83° ESE 21:06:53 10° NE night (unlit)
30 Jan - 22:38:55 10° W 22:43:44 25° NW 22:48:33 10° NNE night (unlit)
31 Jan - 00:27:42 10° NNW 00:28:04 10° NNW 00:28:24 10° N night (unlit)
31 Jan - 03:53:00 10° NNW 03:57:28 23° NE 04:01:40 10° E visible
31 Jan - 05:34:43 10° NW 05:40:17 79° WSW 05:45:20 10° SSE visible
31 Jan - 07:19:39 10° W 07:21:17 11° W 07:22:53 10° WSW daylight
31 Jan - 20:05:46 10° S 20:11:20 47° ESE 20:17:00 10° NE visible
31 Jan - 21:48:09 10° WSW 21:53:38 38° NW 21:59:07 10° NNE night (unlit)
31 Jan - 23:34:48 10° NW 23:37:27 13° NNW 23:40:06 10° N night (unlit)
01 Feb - 03:03:42 10° N 03:07:09 16° NNE 03:10:27 10° ENE visible
01 Feb - 04:45:01 10° NNW 04:50:33 58° NE 04:55:35 10° SE visible
01 Feb - 06:27:59 10° WNW 06:32:09 23° WSW 06:36:04 10° SSW visible
01 Feb - 19:17:12 10° SSE 19:21:57 26° ESE 19:26:47 10° NE visible
01 Feb - 20:57:51 10° SW 21:03:42 62° NW 21:09:34 10° NNE visible
01 Feb - 22:43:04 10° WNW 22:47:01 18° NNW 22:50:55 10° N night (unlit)
02 Feb - 02:14:38 10° N 02:16:40 12° NNE 02:18:39 10° NE visible
02 Feb - 03:55:30 10° NNW 04:00:35 34° NE 04:05:18 10° ESE visible
02 Feb - 05:37:40 10° NW 05:42:50 44° WSW 05:47:34 10° S visible
02 Feb - 18:29:52 10° SE 18:32:44 14° ESE 18:35:39 10° ENE visible
02 Feb - 20:08:05 10° SSW 20:13:57 79° ESE 20:19:55 10° NE visible
02 Feb - 21:51:51 10° W 21:56:44 26° NW 22:01:36 10° NNE visible
02 Feb - 23:40:17 10° NNW 23:41:00 10° NNW 23:41:42 10° N night (unlit)
03 Feb - 03:06:05 10° NNW 03:10:27 22° NE 03:14:32 10° E visible
03 Feb - 04:47:46 10° NW 04:53:19 84° WSW 04:58:20 10° SSE visible
03 Feb - 06:32:23 10° WNW 06:34:22 12° W 06:36:18 10° WSW visible
03 Feb - 19:18:52 10° S 19:24:24 45° ESE 19:30:01 10° NE visible
03 Feb - 21:01:07 10° WSW 21:06:39 39° NW 21:12:10 10° NNE visible
03 Feb - 22:47:39 10° NW 22:50:25 13° NNW 22:53:10 10° N night (unlit)
